Location: ???????
(55.2903°N, 39.1554°E)
Time: 15:33:19
(UTC+00:00)

Cosmos 1092 Rocket - Pass Details

Date: 14 April 2024
Orbit: 955 x 993 km, 83.0° (Epoch: 24 May)

Event Time Altitude Azimuth Distance (km) Brightness Sun altitude
Exits shadow 00:41:45 - 186° (S) 2,977 6.1 -13.2°
Reaches altitude 10° 00:42:32 10° 186° (S) 2,681 5.9 -13.1°
Maximum altitude 00:48:40 85° 99° (E) 968 4.0 -12.4°
Drops below altitude 10° 00:54:52 10° 12° (NNE) 2,706 7.1 -11.7°
Sets 00:57:23 0° 12° (NNE) 3,659 7.8 -11.5°
